CW4829 Weather Reports


Display with metric or nautical units.
time (UTC)temp
F
wind
direction
speed
MPH
gust
MPH
rain 1hr
in
rain 24hr
in
rain mn
in
humidity
%
barometer
mb
20240523093523 61 195 0.0 0.0 0.00 0.02 0.00 89 1011.3
20240523091602 62 195 0.0 0.0 0.00 0.02 0.00 89 1011.6
20240523091045 62 195 0.0 0.0 0.00 0.02 0.00 89 1011.5
20240523090639 62 195 0.0 0.0 0.00 0.02 0.00 89 1011.5
20240523090033 62 195 0.0 0.0 0.00 0.02 0.00 89 1011.5
20240523085535 62 195 0.0 0.0 0.00 0.02 0.00 89 1011.1
20240523085034 62 195 0.0 0.0 0.00 0.02 0.00 88 1011.1
20240523084532 62 195 0.0 0.0 0.00 0.02 0.00 88 1011.1
20240523084050 62 195 0.0 0.0 0.00 0.02 0.00 88 1011.1
20240523083553 62 195 0.0 0.0 0.00 0.02 0.00 88 1011.1
20240523083055 62 195 0.0 0.0 0.00 0.02 0.00 88 1011.1
20240523082533 63 195 0.0 0.0 0.00 0.02 0.00 88 1010.7
20240523082054 63 195 0.0 0.0 0.00 0.02 0.00 88 1010.7
20240523081532 63 195 0.0 0.0 0.00 0.02 0.00 87 1010.7
20240523081052 63 195 0.0 0.0 0.00 0.02 0.00 87 1010.7
20240523080530 63 195 0.0 0.0 0.00 0.02 0.00 87 1010.7
20240523080033 63 195 0.0 0.0 0.00 0.02 0.00 87 1010.7
20240523075529 63 195 0.0 0.0 0.00 0.02 0.00 87 1010.6
20240523075049 63 195 0.0 0.0 0.00 0.02 0.00 87 1010.6
20240523074530 64 195 0.0 0.0 0.00 0.02 0.00 87 1010.6
20240523074052 64 195 0.0 0.0 0.00 0.02 0.00 87 1010.5
20240523073550 64 195 0.0 0.0 0.00 0.02 0.00 86 1010.5
20240523073030 64 195 0.0 0.0 0.00 0.02 0.00 86 1010.5
20240523072528 64 195 0.0 0.0 0.00 0.02 0.00 86 1010.4
20240523072026 64 195 0.0 0.0 0.00 0.02 0.00 85 1010.4
20240523071529 65 195 0.0 0.0 0.00 0.02 0.00 85 1010.4
20240523071031 65 195 0.0 0.0 0.00 0.02 0.00 85 1010.5
20240523070529 65 195 0.0 0.0 0.00 0.02 0.00 84 1010.5
20240523070051 65 195 0.0 0.0 0.00 0.02 0.00 84 1010.5
20240523065543 65 195 0.0 0.0 0.00 0.02 0.00 84 1010.6
20240523065125 65 195 0.0 0.0 0.00 0.02 0.00 84 1010.6
20240523064544 65 195 0.0 0.0 0.00 0.02 0.00 84 1010.6
20240523064027 65 195 0.0 0.0 0.00 0.02 0.00 84 1010.3
20240523063109 66 195 0.0 0.0 0.00 0.02 0.00 84 1010.3
20240523062549 66 195 0.0 0.0 0.00 0.02 0.00 83 1010.2
20240523062036 66 195 0.0 0.0 0.00 0.02 0.00 83 1010.2
20240523061539 67 195 0.0 0.0 0.00 0.02 0.00 83 1010.2
20240523061115 67 195 0.0 0.0 0.00 0.02 0.00 83 1010.0
20240523055110 67 195 1.0 4.0 0.00 0.02 0.00 82 1009.9
20240523053115 68 193 2.0 5.0 0.00 0.02 0.00 79 1009.6
20240523052554 68 193 3.0 5.0 0.00 0.02 0.00 78 1009.7
20240523052020 69 193 1.0 4.0 0.00 0.02 0.00 77 1009.7
20240523051607 69 193 2.0 3.0 0.00 0.02 0.00 76 1009.7
20240523050615 70 193 1.0 4.0 0.00 0.02 0.00 76 1009.6
20240523050103 71 193 2.0 5.0 0.00 0.02 0.00 76 1009.6
20240523045547 71 216 1.0 4.0 0.00 0.02 0.00 75 1009.5
20240523045033 71 195 2.0 4.0 0.00 0.02 0.00 74 1009.5
20240523044612 71 187 1.0 8.0 0.00 0.02 0.00 73 1009.5
20240523042020 71 223 3.0 5.0 0.00 0.02 0.00 70 1009.1
20240523041617 70 173 2.0 5.0 0.00 0.02 0.00 69 1009.1
20240523041105 70 188 2.0 5.0 0.00 0.02 0.00 69 1009.1
20240523040543 71 192 2.0 5.0 0.00 0.02 0.00 70 1009.1
20240523040029 71 192 2.0 5.0 0.00 0.02 0.00 70 1009.1
20240523035617 71 213 2.0 6.0 0.00 0.02 0.02 72 1009.1
20240523035105 71 175 3.0 9.0 0.00 0.02 0.02 71 1009.1
20240523034552 71 195 3.0 9.0 0.00 0.02 0.02 72 1009.1
20240523034135 71 125 2.0 7.0 0.00 0.02 0.02 73 1009.2
20240523033543 72 335 2.0 5.0 0.00 0.02 0.02 76 1009.2
20240523033113 72 193 2.0 7.0 0.00 0.02 0.02 76 1009.2
20240523032605 72 213 3.0 9.0 0.00 0.02 0.02 76 1009.2
20240523032024 72 184 3.0 9.0 0.00 0.02 0.02 77 1009.2
20240523030604 72 198 2.0 7.0 0.00 0.02 0.02 82 1008.9
20240523030049 72 178 2.0 5.0 0.00 0.02 0.02 84 1008.9
20240523025543 73 213 1.0 7.0 0.00 0.02 0.02 84 1008.9
20240523025020 73 275 4.0 7.0 0.00 0.02 0.02 84 1008.9
20240523024610 73 208 3.0 7.0 0.00 0.02 0.02 83 1008.9
20240523024037 73 162 4.0 8.0 0.00 0.02 0.02 81 1008.0
20240523023527 73 203 3.0 7.0 0.00 0.02 0.02 80 1008.0
20240523023108 73 211 1.0 4.0 0.00 0.02 0.02 80 1008.0
20240523022535 73 211 1.0 6.0 0.00 0.02 0.02 80 1008.0
20240523022131 74 294 1.0 6.0 0.00 0.02 0.02 80 1008.0
20240523021114 74 18 2.0 7.0 0.00 0.02 0.02 80 1008.2
20240523020539 74 207 2.0 7.0 0.00 0.02 0.02 79 1008.2
20240523020046 75 192 1.0 7.0 0.00 0.02 0.02 80 1008.2
20240523015523 75 192 2.0 6.0 0.00 0.02 0.02 80 1008.3
20240523015125 75 190 2.0 12.0 0.00 0.02 0.02 80 1008.3
20240523014536 76 182 7.0 12.0 0.00 0.02 0.02 80 1008.3
20240523014041 76 192 6.0 11.0 0.00 0.02 0.02 79 1007.9
20240523013519 76 196 5.0 13.0 0.00 0.02 0.02 78 1007.9
20240523013117 77 205 6.0 13.0 0.00 0.02 0.02 78 1007.9
20240523011055 77 227 4.0 10.0 0.00 0.02 0.02 75 1007.4
20240523010608 77 181 5.0 9.0 0.00 0.02 0.02 75 1007.4
20240523005555 77 174 1.0 7.0 0.00 0.02 0.02 77 1007.4
20240523005054 77 190 3.0 7.0 0.00 0.02 0.02 77 1007.4
20240523004553 77 205 4.0 10.0 0.00 0.02 0.02 76 1007.4
20240523004027 77 204 4.0 10.0 0.00 0.02 0.02 76 1006.9
20240523003608 77 223 4.0 9.0 0.00 0.02 0.02 76 1006.9
20240523002614 78 223 5.0 11.0 0.00 0.02 0.02 76 1006.4
20240523002104 78 205 5.0 9.0 0.00 0.02 0.02 75 1006.4
20240523001548 78 244 4.0 8.0 0.00 0.02 0.02 75 1006.4
20240523001030 78 193 5.0 8.0 0.00 0.02 0.02 75 1005.8
20240523000615 78 171 3.0 10.0 0.00 0.02 0.02 74 1005.8
20240523000037 78 209 5.0 10.0 0.00 0.02 0.02 74 1005.8
20240522235533 78 207 4.0 10.0 0.00 0.02 0.02 73 1005.7
20240522235118 78 200 4.0 11.0 0.00 0.02 0.02 73 1005.7
20240522234614 79 197 4.0 11.0 0.00 0.02 0.02 73 1005.7
20240522234056 79 165 4.0 9.0 0.00 0.02 0.02 72 1006.0
20240522233522 79 188 4.0 12.0 0.00 0.02 0.02 72 1006.0
20240522233016 79 182 4.0 12.0 0.00 0.02 0.02 72 1006.0
20240522232610 79 196 4.0 9.0 0.00 0.02 0.02 72 1006.6
20240522232040 79 186 4.0 11.0 0.00 0.02 0.02 71 1006.6
20240522231535 80 176 5.0 13.0 0.00 0.02 0.02 71 1006.6
20240522231132 80 169 4.0 13.0 0.00 0.02 0.02 70 1006.9
20240522230541 80 202 6.0 11.0 0.00 0.02 0.02 70 1006.9
20240522230019 80 188 5.0 12.0 0.00 0.02 0.02 69 1006.9
20240522225601 80 163 5.0 15.0 0.00 0.02 0.02 69 1006.9
20240522225047 81 184 7.0 15.0 0.00 0.02 0.02 68 1006.9
20240522224526 81 191 4.0 14.0 0.00 0.02 0.02 68 1006.9
20240522224112 81 215 4.0 15.0 0.00 0.02 0.02 68 1006.9
20240522222559 80 179 6.0 16.0 0.00 0.02 0.02 68 1006.9
20240522222102 80 180 5.0 10.0 0.00 0.02 0.02 67 1006.9
20240522221549 81 200 4.0 13.0 0.00 0.02 0.02 66 1006.9
20240522221023 81 243 8.0 13.0 0.00 0.02 0.02 65 1006.8
20240522220609 81 160 6.0 14.0 0.00 0.02 0.02 65 1006.8
20240522220039 81 201 7.0 14.0 0.00 0.02 0.02 65 1006.8
20240522215618 81 194 6.0 12.0 0.00 0.02 0.02 65 1006.7
20240522214111 82 184 5.0 14.0 0.00 0.02 0.02 63 1006.3
20240522213542 81 182 5.0 14.0 0.00 0.02 0.02 63 1006.3
20240522213051 81 224 7.0 13.0 0.00 0.02 0.02 64 1006.3
20240522212538 81 198 7.0 13.0 0.00 0.02 0.02 62 1006.2
20240522212030 82 204 6.0 9.0 0.00 0.02 0.02 62 1006.2
20240522211612 82 161 3.0 11.0 0.00 0.02 0.02 62 1006.2
20240522211107 82 185 4.0 11.0 0.00 0.02 0.02 61 1006.1
20240522210605 83 178 5.0 12.0 0.00 0.02 0.02 60 1006.1
20240522210040 83 200 6.0 12.0 0.00 0.02 0.02 61 1006.1
20240522205629 82 211 4.0 14.0 0.00 0.02 0.02 63 1006.5
20240522205055 82 201 8.0 14.0 0.00 0.02 0.02 61 1006.5
20240522204526 82 207 8.0 15.0 0.00 0.02 0.02 62 1006.5
20240522204026 82 182 7.0 13.0 0.00 0.02 0.02 64 1006.5
20240522203606 82 219 6.0 13.0 0.00 0.02 0.02 64 1006.5
20240522202602 82 203 5.0 12.0 0.00 0.02 0.02 65 1006.8
20240522202019 82 178 5.0 12.0 0.00 0.02 0.02 65 1006.8
20240522201611 82 227 7.0 12.0 0.00 0.02 0.02 64 1006.8
20240522200105 81 194 6.0 12.0 0.00 0.02 0.02 67 1007.4
20240522195542 81 171 5.0 16.0 0.00 0.02 0.02 66 1007.5
20240522195024 81 235 8.0 16.0 0.00 0.02 0.02 65 1007.5
20240522194619 81 166 4.0 12.0 0.00 0.02 0.02 67 1007.5
20240522194036 81 217 6.0 15.0 0.00 0.02 0.02 67 1007.7
20240522193525 81 180 6.0 12.0 0.00 0.02 0.02 68 1007.7
20240522193033 80 211 6.0 19.0 0.00 0.02 0.02 68 1007.7
20240522192515 80 227 8.0 19.0 0.00 0.02 0.02 68 1007.9
20240522190609 79 196 7.0 16.0 0.00 0.02 0.02 69 1007.7
20240522190058 79 200 7.0 14.0 0.00 0.02 0.02 70 1007.7
20240522185543 79 212 4.0 14.0 0.00 0.02 0.02 71 1007.9
20240522185022 78 218 7.0 14.0 0.00 0.02 0.02 71 1007.9
20240522184109 78 227 9.0 14.0 0.00 0.02 0.02 70 1007.9
20240522183100 78 184 9.0 17.0 0.00 0.02 0.02 70 1007.9
20240522182526 77 211 6.0 15.0 0.00 0.02 0.02 71 1008.0
20240522182132 77 213 8.0 19.0 0.00 0.02 0.02 71 1008.0
20240522181111 77 202 9.0 17.0 0.00 0.02 0.02 70 1008.0
20240522180546 78 202 9.0 17.0 0.00 0.02 0.02 70 1008.0
20240522175604 78 215 7.0 20.0 0.00 0.02 0.02 71 1008.0
20240522174602 79 184 10.0 17.0 0.00 0.02 0.02 69 1008.0
20240522174038 79 171 9.0 17.0 0.00 0.02 0.02 70 1007.7
20240522173530 79 223 7.0 19.0 0.00 0.02 0.02 71 1007.7
20240522173018 78 199 9.0 24.0 0.00 0.02 0.02 71 1007.7
20240522172554 78 179 10.0 24.0 0.00 0.02 0.02 70 1007.8
20240522172045 78 237 8.0 15.0 0.00 0.02 0.02 72 1007.8
20240522171517 78 219 8.0 15.0 0.00 0.02 0.02 71 1007.8
20240522170616 78 247 7.0 13.0 0.00 0.02 0.02 72 1008.0
20240522170058 78 186 5.0 13.0 0.00 0.02 0.02 74 1008.0
20240522165527 78 156 7.0 13.0 0.00 0.02 0.02 74 1008.1
20240522165115 77 219 7.0 14.0 0.00 0.02 0.02 73 1008.1
20240522162558 77 233 9.0 20.0 0.00 0.02 0.02 73 1008.5
20240522162137 77 265 9.0 20.0 0.00 0.02 0.02 73 1008.5
20240522161112 77 197 7.0 17.0 0.00 0.02 0.02 75 1008.5
20240522160533 76 201 7.0 17.0 0.00 0.02 0.02 75 1008.5
20240522160115 76 202 6.0 18.0 0.00 0.02 0.02 76 1008.5
20240522155552 75 169 9.0 18.0 0.00 0.02 0.02 76 1008.5
20240522155021 74 185 6.0 13.0 0.00 0.02 0.02 77 1008.5
20240522154605 74 163 6.0 13.0 0.00 0.02 0.02 77 1008.5
20240522154117 74 209 6.0 18.0 0.00 0.02 0.02 77 1008.5
20240522153541 75 182 8.0 18.0 0.00 0.02 0.02 77 1008.5
20240522153016 75 242 5.0 13.0 0.00 0.02 0.02 79 1008.5
20240522152609 74 220 6.0 13.0 0.00 0.02 0.02 79 1008.6
20240522152047 74 221 6.0 15.0 0.00 0.02 0.02 80 1008.6
20240522151543 73 184 6.0 15.0 0.00 0.02 0.02 80 1008.6
20240522151059 73 199 7.0 12.0 0.00 0.02 0.02 81 1008.7
20240522150521 72 173 5.0 17.0 0.00 0.02 0.02 81 1008.7
20240522150106 72 253 6.0 17.0 0.00 0.02 0.02 82 1008.7
20240522145542 71 157 7.0 13.0 0.00 0.02 0.02 82 1008.9
20240522145019 71 193 6.0 15.0 0.00 0.02 0.02 82 1008.9
20240522144606 71 197 6.0 15.0 0.00 0.02 0.02 82 1008.9
20240522144058 71 228 5.0 10.0 0.00 0.02 0.02 82 1008.7
20240522143523 71 189 5.0 11.0 0.00 0.02 0.02 83 1008.7
20240522143117 71 214 6.0 11.0 0.00 0.02 0.02 83 1008.7
20240522142056 70 224 6.0 10.0 0.00 0.02 0.02 84 1008.5
20240522141543 70 211 4.0 10.0 0.00 0.02 0.02 84 1008.5
20240522141021 70 219 5.0 9.0 0.00 0.02 0.02 84 1008.6
20240522140617 70 180 3.0 12.0 0.00 0.02 0.02 84 1008.6
20240522135607 70 180 5.0 8.0 0.00 0.02 0.02 84 1008.6
20240522135036 70 186 3.0 9.0 0.00 0.02 0.02 84 1008.6
20240522134520 70 194 5.0 9.0 0.00 0.02 0.02 83 1008.6
20240522133602 70 253 5.0 10.0 0.01 0.02 0.02 82 1008.7
20240522133021 70 209 6.0 10.0 0.02 0.02 0.02 82 1008.7
20240522132611 70 217 6.0 11.0 0.02 0.02 0.02 82 1008.5
20240522131548 70 186 5.0 13.0 0.02 0.02 0.02 82 1008.5
20240522131114 70 199 5.0 13.0 0.02 0.02 0.02 82 1008.5
20240522125555 70 191 5.0 17.0 0.02 0.02 0.02 81 1008.5
20240522125033 70 221 7.0 17.0 0.02 0.02 0.02 80 1008.5
20240522123614 71 216 5.0 7.0 0.01 0.01 0.01 77 1008.0
20240522123110 71 194 4.0 9.0 0.00 0.00 0.00 75 1008.0
20240522122544 72 205 5.0 8.0 0.00 0.00 0.00 73 1007.5
20240522122031 72 161 6.0 8.0 0.00 0.00 0.00 73 1007.5
20240522121518 72 186 4.0 8.0 0.00 0.00 0.00 73 1007.5
20240522120557 72 205 3.0 7.0 0.00 0.00 0.00 73 1007.5
20240522120100 72 211 4.0 10.0 0.00 0.00 0.00 73 1007.5
20240522115521 72 175 4.0 10.0 0.00 0.00 0.00 72 1007.4
20240522115114 72 203 4.0 7.0 0.00 0.00 0.00 72 1007.4
20240522114530 72 186 4.0 7.0 0.00 0.00 0.00 72 1007.4
20240522114104 72 206 5.0 7.0 0.00 0.00 0.00 72 1007.4
20240522113550 72 186 5.0 8.0 0.00 0.00 0.00 72 1007.4
20240522113040 72 192 4.0 8.0 0.00 0.00 0.00 72 1007.4
20240522112629 72 213 3.0 10.0 0.00 0.00 0.00 72 1007.4
20240522112037 72 221 5.0 10.0 0.00 0.00 0.00 72 1007.4
20240522111524 72 188 4.0 9.0 0.00 0.00 0.00 72 1007.4
20240522111124 72 238 4.0 11.0 0.00 0.00 0.00 71 1007.4
20240522110541 72 221 6.0 11.0 0.00 0.00 0.00 72 1007.4
20240522110018 72 185 5.0 10.0 0.00 0.00 0.00 72 1007.4
20240522105517 71 225 4.0 8.0 0.00 0.00 0.00 72 1007.4
20240522105114 71 227 4.0 8.0 0.00 0.00 0.00 72 1007.4
20240522104110 71 173 4.0 11.0 0.00 0.00 0.00 72 1007.5
20240522103601 71 210 4.0 11.0 0.00 0.00 0.00 72 1007.5
20240522102055 71 201 5.0 9.0 0.00 0.00 0.00 73 1007.5
20240522101554 71 209 4.0 9.0 0.00 0.00 0.00 73 1007.5
20240522101033 71 198 4.0 7.0 0.00 0.00 0.00 73 1007.5
20240522100624 71 215 3.0 7.0 0.00 0.00 0.00 73 1007.5
20240522100051 71 211 4.0 8.0 0.00 0.00 0.00 73 1007.5
20240522095631 71 194 4.0 8.0 0.00 0.00 0.00 73 1007.6
20240522094613 71 204 4.0 8.0 0.00 0.00 0.00 73 1007.6